CW6633 Weather Reports


Display with metric or nautical units.
time (UTC)temp
F
wind
direction
speed
MPH
gust
MPH
rain 1hr
in
rain 24hr
in
rain mn
in
humidity
%
barometer
mb
20260505022518 51 135 1.0 5.0 0.00 0.00 0.00 69 1009.6
20260505021518 51 135 1.0 4.0 0.00 0.00 0.00 70 1009.5
20260505020517 51 0.0 0.0 0.00 0.00 0.00 69 1008.7
20260505015538 51 0.0 0.0 0.00 0.00 0.00 69 1008.9
20260505014517 51 0.0 0.0 0.00 0.00 0.00 68 1008.8
20260505013557 52 0.0 0.0 0.00 0.00 0.00 67 1008.0
20260505012516 52 0.0 0.0 0.00 0.00 0.00 68 1008.1
20260505011517 52 0.0 1.0 0.00 0.00 0.00 67 1008.1
20260505010516 53 0.0 0.0 0.00 0.00 0.00 67 1008.3
20260505005517 53 0.0 1.0 0.00 0.00 0.00 66 1008.1
20260505004517 53 0.0 0.0 0.00 0.00 0.00 66 1008.3
20260505003517 54 0 1.0 2.0 0.00 0.00 0.00 64 1007.9
20260505002517 55 293 1.0 3.0 0.00 0.00 0.00 59 1008.6
20260505001559 58 0.0 3.0 0.00 0.00 0.00 47 1008.8
20260505000518 58 0.0 2.0 0.00 0.00 0.00 45 1007.6
20260504235518 58 0.0 3.0 0.00 0.00 0.00 44 1007.3
20260504234517 58 113 1.0 4.0 0.00 0.00 0.00 44 1007.2
20260504233516 58 158 1.0 4.0 0.00 0.00 0.00 44 1007.0
20260504232518 59 135 1.0 4.0 0.00 0.00 0.00 43 1007.2
20260504231517 59 135 2.0 8.0 0.00 0.00 0.00 43 1007.2
20260504230516 60 135 1.0 6.0 0.00 0.00 0.00 42 1007.4
20260504225517 61 158 3.0 10.0 0.00 0.00 0.00 41 1007.8
20260504224516 61 135 3.0 8.0 0.00 0.00 0.00 39 1007.6
20260504223538 60 135 2.0 7.0 0.00 0.00 0.00 40 1006.6
20260504222516 60 135 2.0 6.0 0.00 0.00 0.00 40 1006.7
20260504221516 60 135 3.0 8.0 0.00 0.00 0.00 38 1006.5
20260504220516 61 135 3.0 8.0 0.00 0.00 0.00 37 1006.5
20260504215518 62 135 4.0 10.0 0.00 0.00 0.00 35 1006.2
20260504214517 65 135 4.0 9.0 0.00 0.00 0.00 30 1006.6
20260504213516 68 0.0 3.0 0.00 0.00 0.00 27 1006.4
20260504212517 70 0.0 3.0 0.00 0.00 0.00 25 1006.8
20260504211516 71 0.0 2.0 0.00 0.00 0.00 24 1007.3
20260504210516 73 68 1.0 3.0 0.00 0.00 0.00 23 1008.4
20260504205516 73 135 1.0 3.0 0.00 0.00 0.00 25 1008.4
20260504204517 72 0.0 2.0 0.00 0.00 0.00 28 1008.8
20260504203516 68 135 1.0 4.0 0.00 0.00 0.00 30 1008.3
20260504202517 66 135 1.0 4.0 0.00 0.00 0.00 33 1008.2
20260504201516 63 135 1.0 3.0 0.00 0.00 0.00 36 1008.0
20260504200517 62 135 1.0 3.0 0.00 0.00 0.00 36 1008.3
20260504195517 62 113 1.0 4.0 0.00 0.00 0.00 36 1008.2
20260504194517 63 0.0 1.0 0.00 0.00 0.00 36 1008.3
20260504193516 63 0.0 5.0 0.00 0.00 0.00 34 1008.8
20260504192516 63 0.0 2.0 0.00 0.00 0.00 34 1009.2
20260504191516 63 315 1.0 4.0 0.00 0.00 0.00 36 1009.4
20260504190517 63 45 1.0 3.0 0.00 0.00 0.00 34 1009.9
20260504185517 65 270 3.0 8.0 0.00 0.00 0.00 27 1009.9
20260504184516 66 0.0 0.0 0.00 0.00 0.00 24 1009.2
20260504183516 67 0.0 2.0 0.00 0.00 0.00 23 1009.8
20260504182516 68 0.0 2.0 0.00 0.00 0.00 22 1009.7
20260504181516 69 135 1.0 6.0 0.00 0.00 0.00 21 1010.0
20260504180516 70 0.0 3.0 0.00 0.00 0.00 22 1010.2
20260504175516 71 0.0 2.0 0.00 0.00 0.00 23 1010.7
20260504174516 72 0 1.0 4.0 0.00 0.00 0.00 22 1010.8
20260504173518 72 0.0 2.0 0.00 0.00 0.00 19 1011.0
20260504172516 71 270 1.0 4.0 0.00 0.00 0.00 20 1011.2
20260504171516 70 0.0 3.0 0.00 0.00 0.00 22 1010.9
20260504170517 69 135 1.0 6.0 0.00 0.00 0.00 22 1011.4
20260504150516 62 0.0 3.0 0.00 0.00 0.00 27 1011.3
20260504140516 54 0.0 1.0 0.00 0.00 0.00 37 1010.3
20260504130515 51 0.0 0.0 0.00 0.00 0.00 37 1010.4
20260504110516 46 0.0 0.0 0.00 0.00 0.00 41 1009.8
20260504100518 43 0.0 0.0 0.00 0.00 0.00 48 1010.1
20260504081518 47 0.0 0.0 0.00 0.00 0.00 41 1012.0
20260504080538 49 0.0 0.0 0.00 0.00 0.00 39 1012.4
20260504050517 58 0.0 1.0 0.00 0.00 0.00 30 1013.5
20260504045517 59 0.0 0.0 0.00 0.00 0.00 28 1013.6
20260504044517 59 0.0 3.0 0.00 0.00 0.00 29 1013.5
20260504043619 59 0.0 1.0 0.00 0.00 0.00 30 1013.6
20260504042517 58 0.0 1.0 0.00 0.00 0.00 30 1013.7
20260504041537 57 0.0 1.0 0.00 0.00 0.00 31 1013.3
20260504040538 58 0.0 0.0 0.00 0.00 0.00 31 1013.1
20260504035517 59 0.0 0.0 0.00 0.00 0.00 30 1013.6
20260504034518 59 0.0 1.0 0.00 0.00 0.00 29 1013.7
20260504033517 59 0.0 0.0 0.00 0.00 0.00 30 1012.9
20260504032517 59 0.0 0.0 0.00 0.00 0.00 30 1012.9
20260504031517 59 0.0 3.0 0.00 0.00 0.00 30 1012.8
20260504030517 58 0.0 0.0 0.00 0.00 0.00 31 1012.4
20260504025537 58 0.0 0.0 0.00 0.00 0.00 31 1012.5
20260504024538 58 0.0 1.0 0.00 0.00 0.00 32 1012.4
20260504023518 57 0.0 0.0 0.00 0.00 0.00 34 1012.0
20260504022537 58 0.0 0.0 0.00 0.00 0.00 33 1012.1